EZY47QN EGCC-LKPR

Flight info

Callsign EZY47QN
Flight time 1h 43m
Altitude 37000
Route SONEX UL975 DESIG L603 LAMSO DCT EVELI DCT HMM DCT NOMKA L620 SUVUT DCT SULED L620 PIKIB T620 LALUK DCT GOLOP
Aircraft A320/M-SDE2E3FGHIJ1RWXYZ/LB1

Departure

Time 2026-05-04 17:48
Airport Manchester Airport (EGCC)

Arrival

Time 2026-05-04 19:31
Airport Václav Havel Airport Prague (LKPR)
Time Latitude Longitude Altitude Speed Heading
2026-05-04 17:04 53.36548 -2.28563 255 ft 0 kts 45°
2026-05-04 17:34 53.36532 -2.28586 255 ft 3 kts 20°
2026-05-04 17:34 53.36513 -2.28593 255 ft 2 kts
2026-05-04 17:35 53.36511 -2.28642 255 ft 0 kts 135°
2026-05-04 17:42 53.36500 -2.28623 255 ft 5 kts 135°
2026-05-04 17:42 53.36462 -2.28559 255 ft 11 kts 135°
2026-05-04 17:42 53.36387 -2.28484 255 ft 15 kts 169°
2026-05-04 17:42 53.36298 -2.28400 255 ft 16 kts 134°
2026-05-04 17:43 53.36222 -2.28264 255 ft 16 kts 135°
2026-05-04 17:43 53.36143 -2.28130 255 ft 16 kts 135°
2026-05-04 17:43 53.36057 -2.27997 255 ft 17 kts 138°
2026-05-04 17:43 53.35965 -2.27871 255 ft 18 kts 149°
2026-05-04 17:44 53.35862 -2.27831 253 ft 14 kts 147°
2026-05-04 17:44 53.35797 -2.27703 251 ft 12 kts 133°
2026-05-04 17:44 53.35728 -2.27639 248 ft 12 kts 159°
2026-05-04 17:44 53.35659 -2.27577 246 ft 10 kts 140°
2026-05-04 17:45 53.35603 -2.27501 245 ft 13 kts 141°
2026-05-04 17:45 53.35520 -2.27389 248 ft 17 kts 140°
2026-05-04 17:45 53.35424 -2.27259 247 ft 19 kts 142°
2026-05-04 17:45 53.35323 -2.27191 243 ft 16 kts 191°
2026-05-04 17:46 53.35197 -2.27231 234 ft 16 kts 192°
2026-05-04 17:46 53.35071 -2.27274 227 ft 16 kts 191°
2026-05-04 17:46 53.34995 -2.27335 225 ft 2 kts 229°
2026-05-04 17:46 53.34988 -2.27353 225 ft 2 kts 237°
2026-05-04 17:47 53.34963 -2.27414 225 ft 10 kts 233°
2026-05-04 17:47 53.34893 -2.27561 222 ft 26 kts 231°
2026-05-04 17:47 53.34633 -2.28096 227 ft 93 kts 231°
2026-05-04 17:47 53.34101 -2.29197 231 ft 147 kts 231°
2026-05-04 17:48 53.33381 -2.30666 482 ft 170 kts 231°
2026-05-04 17:48 53.32617 -2.32272 1031 ft 184 kts 234°
2026-05-04 17:48 53.32114 -2.33442 1470 ft 187 kts 242°
2026-05-04 17:48 53.31665 -2.36281 2038 ft 204 kts 276°
2026-05-04 17:49 53.32150 -2.38603 2376 ft 222 kts 307°
2026-05-04 17:49 53.33404 -2.40238 2822 ft 244 kts 338°
2026-05-04 17:49 53.35076 -2.41141 3609 ft 253 kts 342°
2026-05-04 17:49 53.36751 -2.42023 4456 ft 258 kts 342°
2026-05-04 17:50 53.38491 -2.42941 4915 ft 263 kts 342°
2026-05-04 17:50 53.40235 -2.43862 5034 ft 264 kts 342°
2026-05-04 17:50 53.41981 -2.44790 5064 ft 263 kts 341°
2026-05-04 17:50 53.43755 -2.45529 5062 ft 263 kts 355°
2026-05-04 17:51 53.45576 -2.45190 5062 ft 264 kts 18°
2026-05-04 17:51 53.47173 -2.43690 5061 ft 266 kts 41°
2026-05-04 17:51 53.48309 -2.41252 5063 ft 268 kts 63°
2026-05-04 17:51 53.48800 -2.38234 5066 ft 270 kts 86°
2026-05-04 17:52 53.48576 -2.35110 5065 ft 271 kts 103°
2026-05-04 17:52 53.48311 -2.31981 5066 ft 271 kts 88°
2026-05-04 17:52 53.48550 -2.28860 5064 ft 271 kts 79°
2026-05-04 17:52 53.48882 -2.25747 5060 ft 271 kts 78°
2026-05-04 17:53 53.49223 -2.22650 5062 ft 270 kts 78°
2026-05-04 17:53 53.49562 -2.19533 5056 ft 271 kts 78°
2026-05-04 17:53 53.49893 -2.16418 5058 ft 272 kts 79°
2026-05-04 17:53 53.50225 -2.13245 5641 ft 278 kts 80°
2026-05-04 17:54 53.50557 -2.10055 6615 ft 277 kts 79°
2026-05-04 17:54 53.50893 -2.06845 7424 ft 281 kts 79°
2026-05-04 17:54 53.51232 -2.03588 8238 ft 285 kts 79°
2026-05-04 17:54 53.51576 -2.00279 9027 ft 290 kts 79°
2026-05-04 17:55 53.51928 -1.96907 9813 ft 295 kts 79°
2026-05-04 17:55 53.52287 -1.93463 10421 ft 306 kts 80°
2026-05-04 17:55 53.52444 -1.89809 10632 ft 330 kts 92°
2026-05-04 17:55 53.52120 -1.85861 11113 ft 341 kts 104°
2026-05-04 17:56 53.51456 -1.82066 11797 ft 345 kts 107°
2026-05-04 17:56 53.50769 -1.78180 12527 ft 349 kts 107°
2026-05-04 17:56 53.50080 -1.74254 13251 ft 352 kts 107°
2026-05-04 17:56 53.49381 -1.70284 13957 ft 356 kts 107°
2026-05-04 17:57 53.48674 -1.66284 14587 ft 359 kts 107°
2026-05-04 17:57 53.47958 -1.62253 15222 ft 362 kts 107°
2026-05-04 17:57 53.47237 -1.58183 15857 ft 365 kts 107°
2026-05-04 17:57 53.46509 -1.54096 16481 ft 367 kts 107°
2026-05-04 17:58 53.45770 -1.49965 17082 ft 371 kts 107°
2026-05-04 17:58 53.45023 -1.45796 17680 ft 375 kts 108°
2026-05-04 17:58 53.44268 -1.41601 18287 ft 378 kts 108°
2026-05-04 17:58 53.43501 -1.37370 18831 ft 381 kts 108°
2026-05-04 17:59 53.42727 -1.33107 19375 ft 383 kts 108°
2026-05-04 17:59 53.41949 -1.28826 19937 ft 384 kts 107°
2026-05-04 17:59 53.40390 -1.20208 21042 ft 389 kts 107°
2026-05-04 18:00 53.39601 -1.15860 21599 ft 391 kts 107°
2026-05-04 18:00 53.38806 -1.11498 22166 ft 392 kts 107°
2026-05-04 18:00 53.38006 -1.07118 22731 ft 394 kts 107°
2026-05-04 18:00 53.37201 -1.02720 23292 ft 396 kts 107°
2026-05-04 18:01 53.36391 -0.98305 23747 ft 399 kts 107°
2026-05-04 18:01 53.35568 -0.93860 24173 ft 401 kts 107°
2026-05-04 18:01 53.34737 -0.89385 24599 ft 403 kts 107°
2026-05-04 18:02 53.33064 -0.80393 25407 ft 406 kts 107°
2026-05-04 18:02 53.32222 -0.75869 25821 ft 408 kts 107°
2026-05-04 18:02 53.31391 -0.71398 26222 ft 409 kts 107°
2026-05-04 18:02 53.30543 -0.66851 26614 ft 411 kts 107°
2026-05-04 18:03 53.29685 -0.62282 26994 ft 412 kts 106°
2026-05-04 18:03 53.28825 -0.57700 27372 ft 414 kts 106°
2026-05-04 18:03 53.27961 -0.53113 27750 ft 415 kts 106°
2026-05-04 18:03 53.27090 -0.48500 28121 ft 417 kts 106°
2026-05-04 18:04 53.26217 -0.43887 28480 ft 418 kts 106°
2026-05-04 18:04 53.25337 -0.39247 28833 ft 420 kts 106°
2026-05-04 18:04 53.23554 -0.29891 29382 ft 426 kts 107°
2026-05-04 18:05 53.22653 -0.25173 29692 ft 428 kts 107°
2026-05-04 18:05 53.21745 -0.20434 30016 ft 429 kts 107°
2026-05-04 18:05 53.20830 -0.15681 30296 ft 431 kts 107°
2026-05-04 18:05 53.19909 -0.10922 30554 ft 432 kts 107°
2026-05-04 18:06 53.18052 -0.01346 31030 ft 435 kts 107°
2026-05-04 18:06 53.17117 0.03473 31185 ft 439 kts 108°
2026-05-04 18:06 53.16493 0.06686 31290 ft 441 kts 108°
2026-05-04 18:07 53.15550 0.11548 31571 ft 441 kts 108°
2026-05-04 18:07 53.14605 0.16399 31891 ft 440 kts 108°
2026-05-04 18:07 53.13658 0.21239 32194 ft 440 kts 108°
2026-05-04 18:07 53.12693 0.26133 32507 ft 439 kts 108°
2026-05-04 18:08 53.11754 0.30890 32817 ft 438 kts 108°
2026-05-04 18:08 53.10801 0.35717 33121 ft 438 kts 108°
2026-05-04 18:08 53.09851 0.40518 33425 ft 437 kts 108°
2026-05-04 18:08 53.08909 0.45280 33746 ft 437 kts 108°
2026-05-04 18:09 53.06991 0.54906 34254 ft 437 kts 109°
2026-05-04 18:09 53.05068 0.64533 34629 ft 440 kts 109°
2026-05-04 18:10 53.04100 0.69359 34833 ft 440 kts 109°
2026-05-04 18:10 53.03129 0.74179 35046 ft 440 kts 109°
2026-05-04 18:10 53.02154 0.79001 35232 ft 441 kts 109°
2026-05-04 18:10 53.01174 0.83835 35431 ft 441 kts 109°
2026-05-04 18:11 53.00193 0.88655 35617 ft 441 kts 109°
2026-05-04 18:11 52.99204 0.93489 35770 ft 443 kts 110°
2026-05-04 18:11 52.98219 0.98334 35930 ft 444 kts 108°
2026-05-04 18:11 52.97484 1.03314 36103 ft 445 kts 102°
2026-05-04 18:12 52.96912 1.08361 36233 ft 446 kts 102°
2026-05-04 18:12 52.96337 1.13431 36391 ft 447 kts 102°
2026-05-04 18:12 52.95758 1.18492 36562 ft 447 kts 102°
2026-05-04 18:12 52.95173 1.23562 36731 ft 447 kts 102°
2026-05-04 18:13 52.94584 1.28619 36908 ft 447 kts 102°
2026-05-04 18:13 52.93989 1.33681 37035 ft 447 kts 102°
2026-05-04 18:14 52.92192 1.48780 37054 ft 445 kts 102°
2026-05-04 18:14 52.90998 1.58850 37053 ft 446 kts 103°
2026-05-04 18:15 52.88576 1.78932 37054 ft 447 kts 103°
2026-05-04 18:16 52.87350 1.89022 37054 ft 447 kts 103°
2026-05-04 18:16 52.86111 1.99095 37054 ft 447 kts 103°
2026-05-04 18:17 52.84237 2.14219 37048 ft 448 kts 103°
2026-05-04 18:18 52.82335 2.29352 37050 ft 448 kts 103°
2026-05-04 18:18 52.81070 2.39445 37052 ft 448 kts 103°
2026-05-04 18:19 52.79141 2.54579 37042 ft 448 kts 104°
2026-05-04 18:19 52.77845 2.64658 37043 ft 449 kts 104°
2026-05-04 18:20 52.76531 2.74731 37046 ft 449 kts 104°
2026-05-04 18:20 52.75214 2.84800 37048 ft 449 kts 104°
2026-05-04 18:21 52.73898 2.94865 37049 ft 449 kts 104°
2026-05-04 18:21 52.72077 3.04646 37027 ft 446 kts 114°
2026-05-04 18:22 52.69826 3.14191 37025 ft 447 kts 114°
2026-05-04 18:22 52.67575 3.23747 37027 ft 447 kts 114°
2026-05-04 18:23 52.65314 3.33299 37030 ft 448 kts 114°
2026-05-04 18:23 52.63332 3.43039 37036 ft 450 kts 107°
2026-05-04 18:24 52.61736 3.53000 37026 ft 451 kts 108°
2026-05-04 18:24 52.60122 3.62974 37017 ft 451 kts 108°
2026-05-04 18:25 52.58498 3.72952 37020 ft 452 kts 108°
2026-05-04 18:25 52.56857 3.82928 37013 ft 452 kts 108°
2026-05-04 18:26 52.55216 3.92902 37023 ft 452 kts 108°
2026-05-04 18:26 52.53560 4.02865 37016 ft 452 kts 108°
2026-05-04 18:27 52.51903 4.12769 37021 ft 452 kts 108°
2026-05-04 18:27 52.50234 4.22727 37019 ft 453 kts 108°
2026-05-04 18:28 52.48558 4.32680 37017 ft 453 kts 109°
2026-05-04 18:28 52.46870 4.42633 37019 ft 453 kts 109°
2026-05-04 18:29 52.45176 4.52560 37021 ft 453 kts 109°
2026-05-04 18:29 52.43474 4.62487 37018 ft 453 kts 109°
2026-05-04 18:30 52.41238 4.77525 36939 ft 453 kts 105°
2026-05-04 18:31 52.39997 4.87626 36949 ft 452 kts 104°
2026-05-04 18:31 52.38715 4.97702 36929 ft 451 kts 106°
2026-05-04 18:32 52.37359 5.07738 36941 ft 452 kts 107°
2026-05-04 18:32 52.35968 5.17767 36943 ft 452 kts 107°
2026-05-04 18:33 52.34584 5.27749 36938 ft 453 kts 107°
2026-05-04 18:33 52.33188 5.37862 36931 ft 453 kts 107°
2026-05-04 18:34 52.31799 5.47924 36910 ft 453 kts 107°
2026-05-04 18:34 52.30408 5.57969 36937 ft 453 kts 107°
2026-05-04 18:35 52.29000 5.67997 36967 ft 453 kts 108°
2026-05-04 18:35 52.27572 5.78005 36963 ft 452 kts 108°
2026-05-04 18:36 52.26154 5.87950 36952 ft 452 kts 108°
2026-05-04 18:36 52.24725 5.97936 36932 ft 452 kts 108°
2026-05-04 18:37 52.23280 6.07927 36956 ft 452 kts 108°
2026-05-04 18:37 52.21823 6.17900 36961 ft 452 kts 108°
2026-05-04 18:38 52.20362 6.27864 36968 ft 452 kts 108°
2026-05-04 18:38 52.18904 6.37822 36982 ft 452 kts 108°
2026-05-04 18:39 52.17431 6.47771 36959 ft 452 kts 108°
2026-05-04 18:39 52.15941 6.57734 36958 ft 453 kts 109°
2026-05-04 18:40 52.14444 6.67707 36962 ft 454 kts 108°
2026-05-04 18:40 52.12940 6.77679 36968 ft 454 kts 109°
2026-05-04 18:41 52.11421 6.87656 36971 ft 454 kts 109°
2026-05-04 18:41 52.09896 6.97607 36957 ft 454 kts 109°
2026-05-04 18:42 52.08366 7.07553 36979 ft 453 kts 109°
2026-05-04 18:42 52.06833 7.17415 36983 ft 453 kts 109°
2026-05-04 18:43 52.05289 7.27319 36991 ft 452 kts 109°
2026-05-04 18:43 52.03739 7.37229 36961 ft 452 kts 109°
2026-05-04 18:44 52.02181 7.47130 36980 ft 451 kts 109°
2026-05-04 18:44 52.00615 7.56995 36988 ft 451 kts 109°
2026-05-04 18:45 51.99034 7.66910 36993 ft 450 kts 109°
2026-05-04 18:45 51.97470 7.76661 36993 ft 450 kts 109°
2026-05-04 18:46 51.95886 7.86468 36963 ft 450 kts 109°
2026-05-04 18:46 51.94289 7.96274 36966 ft 450 kts 109°
2026-05-04 18:47 51.92682 8.06089 36973 ft 450 kts 109°
2026-05-04 18:47 51.91085 8.15810 36977 ft 451 kts 109°
2026-05-04 18:48 51.89458 8.25705 36981 ft 451 kts 109°
2026-05-04 18:48 51.87835 8.35507 36961 ft 451 kts 109°
2026-05-04 18:49 51.86203 8.45217 36961 ft 450 kts 110°
2026-05-04 18:49 51.84558 8.54989 36975 ft 451 kts 110°
2026-05-04 18:50 51.82908 8.64772 36977 ft 451 kts 110°
2026-05-04 18:50 51.81250 8.74537 36978 ft 451 kts 110°
2026-05-04 18:51 51.79579 8.84302 36966 ft 451 kts 110°
2026-05-04 18:51 51.77901 8.94045 36975 ft 451 kts 110°
2026-05-04 18:52 51.76217 9.03796 36982 ft 451 kts 110°
2026-05-04 18:52 51.74525 9.13536 36986 ft 451 kts 110°
2026-05-04 18:53 51.72817 9.23271 36984 ft 451 kts 110°
2026-05-04 18:53 51.71106 9.32998 36986 ft 451 kts 110°
2026-05-04 18:54 51.69394 9.42730 36992 ft 451 kts 110°
2026-05-04 18:54 51.67669 9.52444 36992 ft 451 kts 110°
2026-05-04 18:55 51.66227 9.60514 36992 ft 451 kts 110°
2026-05-04 18:55 51.63328 9.76664 36946 ft 451 kts 110°
2026-05-04 18:56 51.61872 9.84706 36954 ft 450 kts 110°
2026-05-04 18:56 51.60112 9.94371 36962 ft 450 kts 110°
2026-05-04 18:57 51.58346 10.04026 36963 ft 450 kts 110°
2026-05-04 18:57 51.56571 10.13679 36971 ft 450 kts 110°
2026-05-04 18:58 51.54788 10.23313 36956 ft 450 kts 110°
2026-05-04 18:58 51.53004 10.32928 36968 ft 449 kts 110°
2026-05-04 18:59 51.51207 10.42541 36974 ft 449 kts 110°
2026-05-04 18:59 51.49402 10.52135 36982 ft 449 kts 110°
2026-05-04 19:00 51.47594 10.61723 36965 ft 449 kts 110°
2026-05-04 19:00 51.45783 10.71293 36984 ft 449 kts 110°
2026-05-04 19:01 51.43963 10.80862 36990 ft 448 kts 110°
2026-05-04 19:01 51.42137 10.90415 36992 ft 448 kts 110°
2026-05-04 19:02 51.40303 10.99953 36988 ft 448 kts 110°
2026-05-04 19:02 51.38459 11.09476 36965 ft 448 kts 110°
2026-05-04 19:03 51.36610 11.18991 36977 ft 448 kts 110°
2026-05-04 19:03 51.34759 11.28460 36983 ft 447 kts 110°
2026-05-04 19:04 51.32886 11.37975 36981 ft 451 kts 110°
2026-05-04 19:04 51.30977 11.47636 36985 ft 460 kts 110°
2026-05-04 19:05 51.29038 11.57448 36970 ft 466 kts 110°
2026-05-04 19:05 51.27066 11.67347 36973 ft 470 kts 109°
2026-05-04 19:06 51.25067 11.77316 36969 ft 473 kts 110°
2026-05-04 19:06 51.23051 11.87326 36970 ft 475 kts 110°
2026-05-04 19:07 51.21021 11.97338 36711 ft 472 kts 110°
2026-05-04 19:07 51.20017 12.02296 36109 ft 467 kts 110°
2026-05-04 19:07 51.19024 12.07187 35539 ft 462 kts 111°
2026-05-04 19:08 51.17731 12.11811 34997 ft 452 kts 125°
2026-05-04 19:08 51.15899 12.15830 34458 ft 445 kts 131°
2026-05-04 19:08 51.14009 12.19712 33922 ft 442 kts 131°
2026-05-04 19:08 51.12126 12.23550 33339 ft 438 kts 131°
2026-05-04 19:09 51.10260 12.27343 32783 ft 434 kts 131°
2026-05-04 19:09 51.08405 12.31108 32242 ft 430 kts 131°
2026-05-04 19:09 51.06563 12.34840 31722 ft 427 kts 131°
2026-05-04 19:09 51.04767 12.38468 31219 ft 423 kts 131°
2026-05-04 19:10 51.02936 12.42161 30703 ft 420 kts 131°
2026-05-04 19:10 51.01147 12.45767 30212 ft 417 kts 131°
2026-05-04 19:10 50.99339 12.49410 29660 ft 414 kts 131°
2026-05-04 19:10 50.97571 12.52973 29068 ft 412 kts 129°
2026-05-04 19:11 50.95793 12.56552 28470 ft 410 kts 131°
2026-05-04 19:11 50.94041 12.60077 28047 ft 404 kts 131°
2026-05-04 19:11 50.92313 12.63546 27773 ft 395 kts 131°
2026-05-04 19:11 50.90630 12.66917 27540 ft 386 kts 131°
2026-05-04 19:12 50.88973 12.70228 27150 ft 382 kts 131°
2026-05-04 19:12 50.85698 12.76756 26275 ft 376 kts 131°
2026-05-04 19:12 50.84077 12.79988 25828 ft 374 kts 131°
2026-05-04 19:13 50.82464 12.83193 25389 ft 372 kts 131°
2026-05-04 19:13 50.80854 12.86386 24922 ft 371 kts 131°
2026-05-04 19:13 50.79250 12.89565 24450 ft 370 kts 131°
2026-05-04 19:13 50.77643 12.92752 23988 ft 369 kts 131°
2026-05-04 19:14 50.76054 12.95905 23534 ft 368 kts 131°
2026-05-04 19:14 50.74459 12.99062 22987 ft 367 kts 132°
2026-05-04 19:14 50.72883 13.02182 22442 ft 366 kts 132°
2026-05-04 19:14 50.71298 13.05317 21927 ft 366 kts 132°
2026-05-04 19:15 50.69710 13.08446 21407 ft 365 kts 132°
2026-05-04 19:15 50.68126 13.11560 20910 ft 364 kts 132°
2026-05-04 19:15 50.66541 13.14673 20406 ft 364 kts 133°
2026-05-04 19:15 50.64962 13.17769 19900 ft 363 kts 132°
2026-05-04 19:16 50.63377 13.20876 19414 ft 362 kts 132°
2026-05-04 19:16 50.61800 13.23964 18934 ft 361 kts 132°
2026-05-04 19:16 50.60229 13.27041 18463 ft 361 kts 132°
2026-05-04 19:16 50.58656 13.30119 17952 ft 360 kts 132°
2026-05-04 19:17 50.57090 13.33183 17419 ft 359 kts 132°
2026-05-04 19:17 50.55521 13.36242 16894 ft 359 kts 133°
2026-05-04 19:17 50.53954 13.39293 16379 ft 359 kts 133°
2026-05-04 19:17 50.52384 13.42351 15871 ft 359 kts 133°
2026-05-04 19:18 50.50833 13.45374 15583 ft 352 kts 133°
2026-05-04 19:18 50.49315 13.48329 15331 ft 344 kts 133°
2026-05-04 19:18 50.47825 13.51223 15075 ft 337 kts 133°
2026-05-04 19:18 50.46365 13.54053 14841 ft 331 kts 133°
2026-05-04 19:19 50.44926 13.56834 14601 ft 325 kts 133°
2026-05-04 19:19 50.43516 13.59558 14360 ft 319 kts 133°
2026-05-04 19:19 50.42127 13.62244 14122 ft 315 kts 133°
2026-05-04 19:19 50.40747 13.64902 13886 ft 314 kts 133°
2026-05-04 19:20 50.39368 13.67547 13634 ft 313 kts 134°
2026-05-04 19:20 50.37993 13.70186 13364 ft 312 kts 133°
2026-05-04 19:20 50.36627 13.72808 13104 ft 311 kts 133°
2026-05-04 19:20 50.35281 13.75391 12852 ft 309 kts 133°
2026-05-04 19:21 50.33906 13.78029 12586 ft 308 kts 133°
2026-05-04 19:21 50.32568 13.80594 12329 ft 307 kts 133°
2026-05-04 19:21 50.31219 13.83179 12074 ft 306 kts 133°
2026-05-04 19:21 50.29874 13.85752 11820 ft 305 kts 133°
2026-05-04 19:22 50.28532 13.88316 11566 ft 304 kts 133°
2026-05-04 19:22 50.27195 13.90866 11324 ft 303 kts 133°
2026-05-04 19:22 50.25879 13.93416 11066 ft 303 kts 129°
2026-05-04 19:22 50.24745 13.96246 10532 ft 312 kts 124°
2026-05-04 19:23 50.23616 13.99141 9828 ft 309 kts 124°
2026-05-04 19:23 50.22528 14.01965 8994 ft 299 kts 123°
2026-05-04 19:23 50.21488 14.04707 8223 ft 289 kts 123°
2026-05-04 19:23 50.20493 14.07367 7575 ft 278 kts 121°
2026-05-04 19:24 50.19545 14.09947 6734 ft 269 kts 121°
2026-05-04 19:24 50.18659 14.12460 6031 ft 260 kts 120°
2026-05-04 19:24 50.17841 14.14895 5563 ft 244 kts 116°
2026-05-04 19:24 50.17384 14.17354 5168 ft 235 kts 93°
2026-05-04 19:25 50.17760 14.19796 4707 ft 235 kts 60°
2026-05-04 19:25 50.18922 14.21563 4185 ft 238 kts 26°
2026-05-04 19:25 50.20490 14.22027 3973 ft 231 kts 352°
2026-05-04 19:25 50.21935 14.21112 3738 ft 223 kts 316°
2026-05-04 19:26 50.22777 14.19173 3427 ft 214 kts 279°
2026-05-04 19:26 50.22802 14.16931 3072 ft 206 kts 256°
2026-05-04 19:26 50.22601 14.14693 2773 ft 209 kts 256°
2026-05-04 19:26 50.22392 14.12451 2526 ft 207 kts 251°
2026-05-04 19:27 50.21800 14.10507 2233 ft 193 kts 225°
2026-05-04 19:27 50.20767 14.09307 1981 ft 184 kts 199°
2026-05-04 19:27 50.19572 14.08983 1983 ft 169 kts 175°
2026-05-04 19:27 50.18462 14.09426 1984 ft 164 kts 153°
2026-05-04 19:28 50.17565 14.10496 1986 ft 164 kts 133°
2026-05-04 19:28 50.16874 14.11912 1987 ft 164 kts 129°
2026-05-04 19:28 50.16190 14.13336 1985 ft 164 kts 129°
2026-05-04 19:28 50.15505 14.14763 1995 ft 163 kts 129°
2026-05-04 19:29 50.14815 14.16197 1984 ft 158 kts 129°
2026-05-04 19:29 50.14216 14.17450 1981 ft 138 kts 129°
2026-05-04 19:29 50.13656 14.18619 1944 ft 132 kts 129°
2026-05-04 19:29 50.13113 14.19744 1924 ft 130 kts 128°
2026-05-04 19:30 50.12566 14.20873 1759 ft 130 kts 128°
2026-05-04 19:30 50.12010 14.21978 1568 ft 130 kts 127°
2026-05-04 19:30 50.11466 14.23101 1451 ft 131 kts 125°
2026-05-04 19:30 50.10939 14.24210 1270 ft 132 kts 123°
2026-05-04 19:31 50.10403 14.25371 1178 ft 116 kts 126°
2026-05-04 19:31 50.10001 14.26198 1194 ft 80 kts 127°
2026-05-04 19:31 50.09748 14.26735 1208 ft 49 kts 128°
2026-05-04 19:31 50.09553 14.27128 1208 ft 43 kts 127°
2026-05-04 19:32 50.09429 14.27412 1210 ft 12 kts 82°
2026-05-04 19:32 50.09485 14.27513 1212 ft 12 kts 45°
2026-05-04 19:32 50.09556 14.27595 1213 ft 15 kts 32°
2026-05-04 19:32 50.09657 14.27613 1208 ft 15 kts 317°
2026-05-04 19:33 50.09732 14.27491 1206 ft 18 kts 315°
2026-05-04 19:33 50.09826 14.27352 1204 ft 15 kts 316°
2026-05-04 19:33 50.09893 14.27250 1201 ft 11 kts 313°
2026-05-04 19:33 50.09941 14.27148 1200 ft 10 kts 301°
2026-05-04 19:34 50.09960 14.27100 1199 ft 1 kts 301°
2026-05-04 19:34 50.09962 14.27093 1199 ft 1 kts 301°
2026-05-04 19:34 50.09976 14.27058 1198 ft 10 kts 302°
2026-05-04 19:34 50.10049 14.26902 1192 ft 25 kts 310°
2026-05-04 19:35 50.10151 14.26701 1178 ft 23 kts 307°
2026-05-04 19:35 50.10221 14.26554 1173 ft 15 kts 307°
2026-05-04 19:35 50.10280 14.26431 1176 ft 14 kts 307°
2026-05-04 19:35 50.10335 14.26320 1181 ft 12 kts 307°
2026-05-04 19:36 50.10384 14.26219 1175 ft 11 kts 306°
2026-05-04 19:36 50.10428 14.26126 1175 ft 10 kts 307°
2026-05-04 19:36 50.10468 14.26044 1176 ft 9 kts 307°
2026-05-04 19:36 50.10510 14.25980 1174 ft 8 kts 340°
2026-05-04 19:37 50.10575 14.26020 1173 ft 15 kts 33°
2026-05-04 19:37 50.10662 14.26105 1172 ft 12 kts 34°
2026-05-04 19:37 50.10737 14.26186 1171 ft 12 kts 34°
2026-05-04 19:37 50.10813 14.26266 1171 ft 14 kts 34°
2026-05-04 19:38 50.10899 14.26358 1174 ft 16 kts 34°
2026-05-04 19:38 50.10993 14.26458 1170 ft 13 kts 34°
2026-05-04 19:38 50.11045 14.26551 1174 ft 11 kts 86°
2026-05-04 19:38 50.11019 14.26618 1174 ft 7 kts 146°
2026-05-04 19:39 50.10984 14.26645 1172 ft 5 kts 168°
2026-05-04 19:39 50.10959 14.26631 1174 ft 3 kts 216°
2026-05-04 19:39 50.10944 14.26615 1172 ft 2 kts 214°
2026-05-04 19:39 50.10933 14.26604 1172 ft 1 kts 214°
2026-05-04 19:40 50.10929 14.26599 1173 ft 0 kts 214°
2026-05-04 19:40 50.10928 14.26598 1174 ft 0 kts 214°